Little Rock AFB, AR

12:59 PM CST on December 12, 2019 (GMT -0600)
Little Rock Air Force Base

Weather History for KLRF - August, 2019

Change the Weather History Date:

Thursday, August 22, 2019

  Actual Average Record
Temperature  
Mean Temperature 82 °F -  
Max Temperature 96 °F 90 °F 101 °F (1983)
Min Temperature 69 °F 67 °F 59 °F (2012)
Cooling Degree Days 17    
Growing Degree Days 32 (Base 50)    
Moisture  
Dew Point 73 °F    
Average Humidity 83    
Maximum Humidity 100    
Minimum Humidity 48    
Precipitation  
Precipitation 0.73 in - - ()
Sea Level Pressure  
Sea Level Pressure 29.95 in    
Wind  
Wind Speed 5 mph ()    
Max Wind Speed 21 mph    
Max Gust Speed 30 mph    
Visibility 8.5 miles    
Events Rain , Thunderstorm    
Averages and records for this station are not official NWS values.
T = Trace of Precipitation, MM = Missing Value Source: Averaged Metar Reports

Daily Weather History Graph

Daily Weather History Graph

Search for Another Location

Airport or City:

Astronomy

Aug. 22, 2019 Rise Set
Actual Time 6:33 AM CDT 7:48 PM CDT
Civil Twilight 6:07 AM CDT 8:14 PM CDT
Nautical Twilight 5:36 AM CDT 8:46 PM CDT
Astronomical Twilight 5:03 AM CDT 9:18 PM CDT
Moon 11:55 PM CDT (8/22) 12:54 PM CDT (8/22)
Length of Visible Light 14h 07m
Length of Day
13h 14m
Waning Gibbous, 59% of the Moon is Illuminated
Aug 22
Waning Gibbous
Aug 23
Last Quarter
Aug 30
New
Sep 5
First Quarter
Sep 13
Full

Hourly Weather History & Observations

Time (CDT) Temp. Heat Index Dew Point Humidity Pressure Visibility Wind Dir Wind Speed Gust Speed Precip Events Conditions
12:56 AM 78.8 °F - 78.1 °F 98% 29.98 in 10.0 mi Calm Calm - N/A   Overcast
1:56 AM 78.6 °F - 77.4 °F 96% 29.96 in 10.0 mi Calm Calm - N/A   Overcast
2:56 AM 77.7 °F - 77.0 °F 98% 29.94 in 10.0 mi Calm Calm - N/A   Scattered Clouds
3:56 AM 77.0 °F - 77.0 °F 100% 29.95 in 10.0 mi SE 3.5 mph - N/A   Mostly Cloudy
4:56 AM 78.1 °F - 74.5 °F 89% 29.95 in 10.0 mi Calm Calm - N/A   Scattered Clouds
5:56 AM 75.9 °F - 75.6 °F 99% 29.95 in 10.0 mi Calm Calm - N/A   Clear
6:56 AM 75.6 °F - 75.2 °F 99% 29.96 in 10.0 mi Calm Calm - N/A   Clear
7:56 AM 78.8 °F - 74.8 °F 88% 29.97 in 10.0 mi Calm Calm - N/A   Clear
8:56 AM 82.2 °F 89.1 °F 75.0 °F 79% 29.98 in 10.0 mi South 5.8 mph - N/A   Clear
9:56 AM 86.5 °F 95.5 °F 75.0 °F 68% 29.98 in 10.0 mi Calm Calm - N/A   Clear
10:56 AM 89.2 °F 99.5 °F 75.4 °F 63% 29.98 in 10.0 mi SW 4.6 mph - N/A   Clear
11:56 AM 93.7 °F 104.3 °F 74.5 °F 53% 29.96 in 10.0 mi SSW 11.5 mph 16.1 mph N/A   Partly Cloudy
12:56 PM 95.0 °F 103.8 °F 72.7 °F 48% 29.93 in 10.0 mi WSW 8.1 mph - N/A   Mostly Cloudy
1:44 PM 89.6 °F 98.2 °F 73.4 °F 59% 29.92 in 6.0 mi West 10.4 mph 18.4 mph N/A Rain Light Rain
1:46 PM 89.6 °F 98.2 °F 73.4 °F 59% 29.92 in 6.0 mi West 9.2 mph - N/A Rain Light Rain
1:52 PM 86.0 °F 95.1 °F 75.2 °F 70% 29.93 in 10.0 mi WSW 18.4 mph 25.3 mph N/A Rain , Thunderstorm Light Thunderstorms and Rain
1:54 PM 84.2 °F 92.3 °F 75.2 °F 74% 29.94 in 10.0 mi SW 12.7 mph 25.3 mph N/A Rain , Thunderstorm Light Thunderstorms and Rain
1:56 PM 84.0 °F 91.2 °F 74.3 °F 72% 29.94 in 10.0 mi SW 10.4 mph 25.3 mph 0.00 in Rain , Thunderstorm Light Thunderstorms and Rain
2:07 PM 80.6 °F 85.4 °F 73.4 °F 79% 29.93 in 10.0 mi SE 10.4 mph - N/A Thunderstorm Thunderstorm
2:15 PM 80.6 °F 85.4 °F 73.4 °F 79% 29.93 in 10.0 mi ESE 6.9 mph - N/A Thunderstorm Mostly Cloudy
2:56 PM 84.6 °F 90.7 °F 72.7 °F 67% 29.93 in 10.0 mi NNE 4.6 mph - 0.00 in   Mostly Cloudy
3:56 PM 91.0 °F 104.2 °F 76.6 °F 63% 29.91 in 10.0 mi North 3.5 mph - N/A   Clear
4:56 PM 89.1 °F 101.4 °F 76.6 °F 67% 29.89 in 10.0 mi ENE 9.2 mph - N/A   Clear
5:56 PM 85.3 °F 94.6 °F 75.6 °F 73% 29.90 in 10.0 mi East 9.2 mph - N/A   Mostly Cloudy
6:56 PM 83.5 °F 91.2 °F 75.4 °F 76% 29.91 in 10.0 mi ESE 4.6 mph - N/A   Clear
7:56 PM 80.8 °F 86.3 °F 74.7 °F 82% 29.91 in 10.0 mi ENE 4.6 mph - N/A   Clear
8:56 PM 79.5 °F - 75.9 °F 89% 29.92 in 10.0 mi Calm Calm - N/A   Scattered Clouds
9:05 PM 78.8 °F - 75.2 °F 89% 29.93 in 10.0 mi ENE 3.5 mph - N/A   Mostly Cloudy
9:41 PM 78.8 °F - 73.4 °F 83% 29.97 in 10.0 mi WNW 16.1 mph 21.9 mph N/A Thunderstorm Mostly Cloudy
9:43 PM 78.8 °F - 71.6 °F 78% 29.97 in 10.0 mi NNW 19.6 mph 27.6 mph N/A Thunderstorm Mostly Cloudy
9:47 PM 77.0 °F - 69.8 °F 78% 29.98 in 10.0 mi NNW 10.4 mph 27.6 mph N/A Thunderstorm Thunderstorm
9:55 PM 77.0 °F - 68.0 °F 74% 29.97 in 6.0 mi WNW 12.7 mph 26.5 mph N/A Thunderstorm Unknown
9:56 PM 75.7 °F - 68.0 °F 77% 29.97 in 6.0 mi WNW 12.7 mph 26.5 mph 0.00 in Thunderstorm Unknown
10:01 PM 75.2 °F - 68.0 °F 78% 29.98 in 5.0 mi West 15.0 mph 26.5 mph N/A Rain , Thunderstorm Light Thunderstorms and Rain
10:04 PM 73.4 °F - 69.8 °F 88% 29.98 in 5.0 mi West 13.8 mph 26.5 mph N/A Rain , Thunderstorm Light Thunderstorms and Rain
10:15 PM 73.4 °F - 69.8 °F 88% 30.01 in 1.0 mi WNW 13.8 mph 29.9 mph N/A Rain , Thunderstorm Heavy Thunderstorms and Rain
10:22 PM 71.6 °F - 71.6 °F 100% 30.01 in 1.1 mi WNW 20.7 mph 29.9 mph N/A Rain , Thunderstorm Heavy Thunderstorms and Rain
10:37 PM 71.6 °F - 71.6 °F 100% 29.98 in 0.8 mi West 3.5 mph - N/A Rain , Thunderstorm Heavy Thunderstorms and Rain
10:42 PM 71.6 °F - 69.8 °F 94% 29.96 in 4.0 mi SW 4.6 mph - N/A Rain , Thunderstorm Light Thunderstorms and Rain
10:50 PM 71.6 °F - 71.6 °F 100% 29.98 in 10.0 mi WSW 12.7 mph - N/A Thunderstorm Thunderstorm
10:56 PM 71.6 °F - 71.2 °F 99% 29.97 in 10.0 mi SW 13.8 mph - 0.60 in Thunderstorm Thunderstorm
11:00 PM 71.6 °F - 71.6 °F 100% 29.96 in 10.0 mi West 12.7 mph - N/A Thunderstorm Thunderstorm
11:04 PM 71.6 °F - 71.6 °F 100% 29.95 in 6.0 mi WNW 10.4 mph - N/A Rain , Thunderstorm Light Thunderstorms and Rain
11:15 PM 71.6 °F - 71.6 °F 100% 29.99 in 4.0 mi SW 17.3 mph - N/A Rain , Thunderstorm Thunderstorms and Rain
11:50 PM 69.8 °F - 69.8 °F 100% 29.97 in 10.0 mi NNW 3.5 mph - N/A   Overcast
11:56 PM 70.5 °F - 70.2 °F 99% 29.97 in 10.0 mi SW 4.6 mph - 0.13 in   Overcast